Tracking 29892 objects as of 21-Nov-2024
HD Live streaming from Space Station
objects crossing your sky now

CZ-6A DEB

Track CZ-6A DEB now!
10-day predictions


NORAD ID: 55557
Int'l Code: 2022-151ZF
Perigee: 804.1 km
Apogee: 896.2 km
Inclination: 98.7 °
Period: 101.8 minutes
Semi major axis: 7221 km
RCS: Unknown
Launch date: November 11, 2022
Source: People's Republic of China (PRC)
Launch site: Taiyaun Space Center, China (TSC)

Note: This is SATELLITE DEBRIS
Your satellite tracking list
Your tracking list is empty




NASA's NSSDC Master Catalog

Two Line Element Set (TLE):
1 55557U 22151ZF  24324.46109461  .00001658  00000-0  86522-3 0  9990
2 55557  98.7244 319.0210 0063810 191.4765 168.4957 14.14791936103560
Source of the keplerian elements: AFSPC